EW9167 Weather Reports


Display with metric or nautical units.
time (UTC)temp
F
wind
direction
speed
MPH
gust
MPH
rain 1hr
in
rain 24hr
in
rain mn
in
humidity
%
barometer
mb
20201202090326 37 68 3.0 8.0 0.00 0.00 0.00 62 1012.6
20201202085822 37 21 1.0 11.0 0.00 0.00 0.00 62 1012.7
20201202085312 37 90 3.0 13.0 0.00 0.00 0.00 62 1012.8
20201202084807 37 32 7.0 10.0 0.00 0.00 0.00 61 1012.8
20201202084310 37 110 3.0 10.0 0.00 0.00 0.00 62 1012.7
20201202083759 37 358 6.0 13.0 0.00 0.00 0.00 61 1012.5
20201202083243 37 21 8.0 13.0 0.00 0.00 0.00 62 1012.7
20201202082738 37 80 5.0 13.0 0.00 0.00 0.00 62 1012.7
20201202082222 37 95 7.0 13.0 0.00 0.00 0.00 61 1013.0
20201202081722 37 114 5.0 14.0 0.00 0.00 0.00 62 1012.8
20201202081210 37 128 8.0 14.0 0.00 0.00 0.00 61 1012.6
20201202080704 37 86 4.0 10.0 0.00 0.00 0.00 62 1012.8
20201202080150 37 98 6.0 10.0 0.00 0.00 0.00 62 1012.9
20201202075645 37 72 3.0 10.0 0.00 0.00 0.00 62 1012.6
20201202075152 37 75 3.0 14.0 0.00 0.00 0.00 62 1012.7
20201202074628 37 88 8.0 14.0 0.00 0.00 0.00 62 1012.7
20201202074121 37 148 2.0 14.0 0.00 0.00 0.00 62 1012.5
20201202073610 37 29 2.0 14.0 0.00 0.00 0.00 62 1012.6
20201202073102 37 85 4.0 15.0 0.00 0.00 0.00 62 1012.4
20201202072558 37 80 4.0 15.0 0.00 0.00 0.00 62 1012.4
20201202072046 37 67 2.0 15.0 0.00 0.00 0.00 63 1012.4
20201202071539 37 55 4.0 15.0 0.00 0.00 0.00 63 1012.5
20201202071058 37 55 5.0 13.0 0.00 0.00 0.00 63 1012.6
20201202070525 36 34 2.0 13.0 0.00 0.00 0.00 63 1012.4
20201202070031 36 39 1.0 8.0 0.00 0.00 0.00 63 1012.5
20201202065518 37 37 4.0 9.0 0.00 0.00 0.00 63 1012.4
20201202064950 37 99 8.0 11.0 0.00 0.00 0.00 63 1012.5
20201202064444 37 96 3.0 14.0 0.00 0.00 0.00 62 1012.5
20201202063933 37 82 2.0 16.0 0.00 0.00 0.00 62 1012.3
20201202063423 37 115 5.0 16.0 0.00 0.00 0.00 62 1012.2
20201202062917 37 60 4.0 11.0 0.00 0.00 0.00 62 1012.1
20201202062408 37 86 6.0 13.0 0.00 0.00 0.00 62 1012.1
20201202061907 37 76 6.0 13.0 0.00 0.00 0.00 62 1012.0
20201202061354 37 65 4.0 13.0 0.00 0.00 0.00 61 1012.0
20201202060857 37 105 5.0 16.0 0.00 0.00 0.00 61 1012.1
20201202060336 37 83 8.0 16.0 0.00 0.00 0.00 61 1011.9
20201202055832 37 74 4.0 13.0 0.00 0.00 0.00 61 1011.8
20201202055320 37 101 4.0 13.0 0.00 0.00 0.00 60 1011.7
20201202054818 37 32 3.0 10.0 0.00 0.00 0.00 60 1011.8
20201202054311 37 72 4.0 11.0 0.00 0.00 0.00 60 1011.8
20201202053758 37 57 3.0 11.0 0.00 0.00 0.00 60 1012.0
20201202053241 37 88 5.0 9.0 0.00 0.00 0.00 59 1011.9
20201202052729 37 76 2.0 13.0 0.00 0.00 0.00 60 1011.9
20201202052220 37 74 8.0 13.0 0.00 0.00 0.00 59 1011.6
20201202051717 37 71 6.0 13.0 0.00 0.00 0.00 59 1011.9
20201202051207 37 92 3.0 11.0 0.00 0.00 0.00 59 1011.8
20201202050713 37 91 7.0 13.0 0.00 0.00 0.00 59 1011.9
20201202050154 37 93 4.0 13.0 0.00 0.00 0.00 59 1012.0
20201202045643 37 35 6.0 13.0 0.00 0.00 0.00 58 1012.0
20201202045136 37 75 9.0 13.0 0.00 0.00 0.00 57 1011.9
20201202044645 37 140 3.0 16.0 0.00 0.00 0.00 58 1011.8
20201202044117 37 81 4.0 16.0 0.00 0.00 0.00 58 1011.9
20201202043613 37 78 5.0 13.0 0.00 0.00 0.00 58 1012.0
20201202043107 37 59 6.0 14.0 0.00 0.00 0.00 59 1011.9
20201202042605 37 97 5.0 14.0 0.00 0.00 0.00 60 1011.9
20201202042045 37 116 5.0 15.0 0.00 0.00 0.00 60 1011.6
20201202041540 37 102 5.0 15.0 0.00 0.00 0.00 61 1011.8
20201202041030 36 83 3.0 8.0 0.00 0.00 0.00 63 1011.7
20201202040521 37 42 4.0 8.0 0.00 0.00 0.00 62 1011.6
20201202040022 37 89 2.0 11.0 0.00 0.00 0.00 61 1011.5
20201202035519 37 60 4.0 11.0 0.00 0.00 0.00 60 1011.6
20201202034958 37 85 4.0 13.0 0.00 0.00 0.00 60 1011.6
20201202034453 37 104 1.0 13.0 0.00 0.00 0.00 61 1011.5
20201202033941 37 115 5.0 11.0 0.00 0.00 0.00 60 1011.5
20201202033433 37 74 4.0 11.0 0.00 0.00 0.00 60 1011.6
20201202032929 37 119 5.0 17.0 0.00 0.00 0.00 61 1011.4
20201202032417 37 76 5.0 17.0 0.00 0.00 0.00 60 1011.4
20201202031925 37 25 2.0 15.0 0.00 0.00 0.00 61 1011.5
20201202031412 37 52 5.0 11.0 0.00 0.00 0.00 61 1011.3
20201202030858 38 57 5.0 14.0 0.00 0.00 0.00 61 1011.3
20201202030348 38 99 7.0 16.0 0.00 0.00 0.00 61 1011.4
20201202025839 38 90 10.0 13.0 0.00 0.00 0.00 62 1011.0
20201202025329 38 83 4.0 16.0 0.00 0.00 0.00 61 1011.0
20201202024820 38 48 5.0 15.0 0.00 0.00 0.00 59 1011.4
20201202024315 38 87 7.0 18.0 0.00 0.00 0.00 61 1011.1
20201202023808 38 87 8.0 18.0 0.00 0.00 0.00 61 1011.0
20201202023258 37 27 3.0 15.0 0.00 0.00 0.00 63 1011.1
20201202022750 37 49 6.0 10.0 0.00 0.00 0.00 64 1011.1
20201202022233 37 73 5.0 10.0 0.00 0.00 0.00 64 1011.1
20201202021721 38 37 4.0 10.0 0.00 0.00 0.00 63 1010.9
20201202021213 38 63 2.0 13.0 0.00 0.00 0.00 62 1010.8
20201202020709 38 57 3.0 13.0 0.00 0.00 0.00 62 1011.0
20201202020200 38 68 5.0 17.0 0.00 0.00 0.00 61 1010.8
20201202015655 38 81 4.0 17.0 0.00 0.00 0.00 61 1011.0
20201202015146 38 42 5.0 13.0 0.00 0.00 0.00 62 1010.9
20201202014633 38 55 6.0 13.0 0.00 0.00 0.00 62 1010.8
20201202014125 38 98 3.0 13.0 0.00 0.00 0.00 62 1010.7
20201202013623 38 356 5.0 14.0 0.00 0.00 0.00 62 1010.7
20201202013113 38 94 9.0 15.0 0.00 0.00 0.00 62 1010.7
20201202012614 39 83 5.0 15.0 0.00 0.00 0.00 61 1010.7
20201202012102 39 83 5.0 15.0 0.00 0.00 0.00 62 1010.9
20201202011545 39 72 9.0 14.0 0.00 0.00 0.00 61 1010.7
20201202011038 39 128 3.0 19.0 0.00 0.00 0.00 62 1010.4
20201202010532 39 90 13.0 19.0 0.00 0.00 0.00 61 1010.5
20201202010036 39 84 4.0 14.0 0.00 0.00 0.00 62 1010.6
20201202005516 39 83 5.0 11.0 0.00 0.00 0.00 61 1010.2
20201202005031 39 50 5.0 18.0 0.00 0.00 0.00 61 1010.2
20201202004459 39 111 4.0 18.0 0.00 0.00 0.00 60 1010.1
20201202003956 39 78 6.0 14.0 0.00 0.00 0.00 60 1010.0
20201202003443 39 77 3.0 14.0 0.00 0.00 0.00 59 1010.1
20201202002935 40 103 8.0 16.0 0.00 0.00 0.00 59 1009.7
20201202002426 40 69 10.0 16.0 0.00 0.00 0.00 59 1009.9
20201202001921 40 63 5.0 14.0 0.00 0.00 0.00 59 1009.8
20201202001410 40 97 6.0 14.0 0.00 0.00 0.00 58 1009.9
20201202000903 40 81 5.0 16.0 0.00 0.00 0.00 58 1009.5
20201202000402 40 66 6.0 16.0 0.00 0.00 0.00 58 1009.6
20201201235845 40 72 3.0 11.0 0.00 0.00 0.00 59 1009.5
20201201235342 40 28 2.0 13.0 0.00 0.00 0.00 58 1009.6
20201201234840 40 69 2.0 13.0 0.00 0.00 0.00 58 1009.4
20201201234321 40 78 9.0 19.0 0.00 0.00 0.00 57 1009.5
20201201233813 40 78 3.0 19.0 0.00 0.00 0.00 56 1009.3
20201201233307 40 52 6.0 18.0 0.00 0.00 0.00 55 1009.3
20201201232757 40 220 6.0 21.0 0.00 0.00 0.00 55 1009.0
20201201232249 41 242 7.0 21.0 0.00 0.01 0.00 54 1009.0
20201201231745 41 76 6.0 17.0 0.00 0.01 0.00 55 1008.9
20201201231235 41 12 3.0 17.0 0.00 0.01 0.00 53 1009.1
20201201230727 41 59 8.0 16.0 0.00 0.01 0.00 54 1008.7
20201201230223 41 135 5.0 18.0 0.00 0.01 0.00 53 1008.6
20201201225718 41 83 11.0 25.0 0.00 0.01 0.00 53 1008.3
20201201225202 41 85 8.0 16.0 0.00 0.02 0.00 55 1008.5
20201201224703 41 109 8.0 15.0 0.00 0.02 0.00 57 1008.2
20201201224150 41 66 6.0 15.0 0.00 0.02 0.00 57 1008.0
20201201223637 41 51 6.0 23.0 0.00 0.02 0.00 57 1007.7
20201201223131 41 94 6.0 23.0 0.00 0.02 0.00 57 1007.8
20201201222630 41 93 7.0 19.0 0.00 0.03 0.00 57 1007.7
20201201222113 41 75 9.0 19.0 0.00 0.06 0.00 56 1007.8
20201201221626 41 70 9.0 17.0 0.00 0.09 0.00 58 1007.7
20201201221100 41 97 6.0 14.0 0.00 0.15 0.00 58 1007.3
20201201220550 41 76 4.0 15.0 0.00 0.19 0.00 59 1007.2
20201201220107 41 63 7.0 15.0 0.00 0.21 0.00 58 1007.2
20201201215537 41 88 4.0 15.0 0.00 0.21 0.00 59 1006.9
20201201215032 41 86 4.0 16.0 0.00 0.21 0.00 57 1006.8
20201201214522 41 91 4.0 16.0 0.00 0.21 0.00 57 1006.9
20201201213958 42 147 3.0 26.0 0.00 0.22 0.00 55 1006.6
20201201213450 42 69 4.0 26.0 0.00 0.22 0.00 54 1006.7
20201201212945 42 45 6.0 23.0 0.00 0.25 0.00 55 1006.5
20201201212436 42 81 8.0 23.0 0.00 0.27 0.00 54 1006.4
20201201211928 43 55 5.0 19.0 0.00 0.28 0.00 55 1006.2
20201201211421 43 60 10.0 29.0 0.00 0.29 0.00 55 1006.0
20201201210903 44 79 12.0 29.0 0.00 0.29 0.00 52 1006.0
20201201210354 44 35 4.0 25.0 0.00 0.29 0.00 54 1006.1
20201201205845 44 84 9.0 25.0 0.00 0.29 0.00 53 1005.8
20201201205336 45 68 6.0 18.0 0.00 0.29 0.00 53 1005.7
20201201204829 45 119 8.0 18.0 0.00 0.29 0.00 53 1005.3
20201201204319 45 45 8.0 18.0 0.00 0.29 0.00 51 1005.3
20201201203811 46 95 9.0 21.0 0.00 0.29 0.00 50 1005.3
20201201203306 46 97 7.0 21.0 0.00 0.29 0.00 51 1005.1
20201201202756 46 52 8.0 23.0 0.00 0.29 0.00 51 1005.0
20201201202249 46 57 5.0 23.0 0.00 0.29 0.00 50 1005.0
20201201201742 46 98 6.0 22.0 0.00 0.29 0.00 49 1004.9
20201201201232 46 85 11.0 21.0 0.00 0.29 0.00 51 1004.7
20201201200724 46 55 11.0 16.0 0.00 0.29 0.00 53 1004.8
20201201200218 46 45 5.0 16.0 0.00 0.29 0.00 53 1004.5
20201201195714 46 17 6.0 15.0 0.00 0.29 0.00 52 1004.5
20201201195201 46 45 3.0 24.0 0.00 0.29 0.00 52 1004.3
20201201194654 46 103 4.0 24.0 0.00 0.29 0.00 53 1004.3
20201201194142 45 90 1.0 11.0 0.00 0.29 0.00 60 1004.2
20201201193642 45 64 7.0 14.0 0.00 0.29 0.00 59 1004.1
20201201193127 45 95 2.0 16.0 0.00 0.29 0.00 60 1003.9
20201201192630 45 46 4.0 21.0 0.00 0.29 0.00 61 1004.0
20201201192121 45 353 8.0 21.0 0.00 0.29 0.00 60 1003.9
20201201191623 45 79 7.0 18.0 0.00 0.29 0.00 61 1003.8
20201201191057 45 63 12.0 16.0 0.00 0.29 0.00 61 1004.0
20201201190546 45 68 2.0 16.0 0.00 0.29 0.00 61 1003.8
20201201190059 45 75 4.0 14.0 0.00 0.29 0.00 61 1003.7
20201201185538 46 68 1.0 15.0 0.00 0.29 0.00 62 1003.5
20201201185029 45 18 9.0 15.0 0.00 0.29 0.00 61 1003.5
20201201184517 46 90 4.0 14.0 0.00 0.29 0.00 61 1003.5
20201201184014 46 80 3.0 14.0 0.00 0.29 0.00 61 1003.6
20201201183510 46 55 6.0 9.0 0.00 0.29 0.00 61 1003.5
20201201182952 46 86 5.0 15.0 0.00 0.29 0.00 62 1003.6
20201201182433 45 54 4.0 16.0 0.00 0.29 0.00 61 1003.5
20201201181927 45 20 8.0 16.0 0.00 0.29 0.00 60 1003.2
20201201181416 45 71 6.0 16.0 0.00 0.29 0.00 62 1003.2
20201201180907 45 93 7.0 16.0 0.00 0.29 0.00 63 1003.3
20201201180403 45 87 7.0 16.0 0.00 0.30 0.00 66 1003.1
20201201175852 45 75 8.0 16.0 0.00 0.30 0.00 67 1003.3
20201201175343 45 126 8.0 15.0 0.00 0.30 0.00 66 1003.5
20201201174837 44 83 6.0 23.0 0.00 0.30 0.00 69 1003.2
20201201174331 44 92 2.0 23.0 0.00 0.30 0.00 67 1003.3
20201201173818 44 132 6.0 13.0 0.00 0.30 0.00 67 1003.1
20201201173319 45 65 9.0 17.0 0.00 0.30 0.00 69 1003.1
20201201172751 45 3 4.0 17.0 0.00 0.30 0.00 68 1003.2
20201201172248 46 32 6.0 14.0 0.00 0.30 0.00 69 1003.0
20201201171742 45 90 3.0 15.0 0.00 0.30 0.00 69 1003.0
20201201171229 44 73 8.0 17.0 0.00 0.30 0.00 72 1003.0
20201201170735 43 80 6.0 17.0 0.00 0.30 0.00 72 1003.1
20201201170221 44 83 7.0 15.0 0.00 0.30 0.00 71 1002.9
20201201165704 44 69 8.0 15.0 0.00 0.30 0.00 70 1002.9
20201201165159 44 86 5.0 13.0 0.00 0.30 0.00 70 1002.7
20201201164651 44 77 4.0 14.0 0.00 0.30 0.00 72 1002.9
20201201164142 44 75 4.0 15.0 0.00 0.30 0.00 73 1002.7
20201201163637 44 106 8.0 15.0 0.00 0.35 0.00 72 1002.6
20201201163137 44 62 4.0 17.0 0.00 0.39 0.00 72 1002.8
20201201162615 44 82 9.0 17.0 0.00 0.40 0.00 70 1002.5
20201201162113 44 133 6.0 13.0 0.00 0.40 0.00 70 1002.4
20201201161601 45 21 8.0 13.0 0.00 0.41 0.00 71 1002.6
20201201161052 45 9 6.0 13.0 0.00 0.41 0.00 69 1002.8
20201201160545 45 60 7.0 16.0 0.00 0.41 0.00 71 1002.8
20201201160101 45 87 3.0 16.0 0.00 0.41 0.00 70 1002.7
20201201155547 45 28 10.0 16.0 0.00 0.41 0.00 70 1002.7
20201201155041 45 67 13.0 16.0 0.00 0.41 0.00 69 1002.9
20201201154527 45 57 4.0 16.0 0.00 0.41 0.00 70 1002.4
20201201154023 45 222 6.0 10.0 0.00 0.41 0.00 71 1002.6
20201201153510 45 73 4.0 15.0 0.00 0.41 0.00 70 1002.7
20201201152937 46 102 6.0 15.0 0.00 0.41 0.00 70 1002.7
20201201152431 46 69 5.0 15.0 0.00 0.41 0.00 70 1002.6
20201201151923 46 79 6.0 13.0 0.00 0.41 0.00 70 1002.6
20201201151412 46 44 10.0 14.0 0.00 0.41 0.00 69 1002.6
20201201150920 46 78 6.0 14.0 0.00 0.41 0.00 71 1002.6
20201201150356 46 70 9.0 13.0 0.00 0.42 0.00 70 1002.7
20201201145853 46 60 6.0 13.0 0.00 0.44 0.00 69 1002.3
20201201145343 46 49 7.0 13.0 0.00 0.44 0.00 70 1002.4
20201201144840 46 17 6.0 14.0 0.00 0.44 0.00 69 1002.2
20201201144331 46 73 7.0 14.0 0.00 0.45 0.00 68 1002.2
20201201143827 47 67 10.0 14.0 0.00 0.45 0.00 68 1002.2
20201201143317 47 50 4.0 10.0 0.00 0.47 0.00 72 1002.0
20201201142800 47 38 5.0 11.0 0.00 0.49 0.00 73 1002.0
20201201142256 46 103 7.0 15.0 0.00 0.52 0.00 72 1001.9
20201201141743 46 26 3.0 15.0 0.00 0.54 0.00 74 1001.8
20201201141239 46 47 2.0 11.0 0.00 0.58 0.00 74 1001.6
20201201140745 46 77 7.0 11.0 0.00 0.61 0.00 74 1001.6
20201201140222 46 72 6.0 14.0 0.00 0.63 0.00 73 1001.6
20201201135725 46 118 4.0 15.0 0.00 0.66 0.00 74 1001.7
20201201135222 46 42 10.0 15.0 0.00 0.68 0.00 75 1001.3
20201201134913 46 35 4.0 10.0 0.00 0.71 0.00 78 1001.5
20201201134151 46 49 6.0 10.0 0.00 0.73 0.00 81 1001.6
20201201133643 46 60 6.0 10.0 0.00 0.75 0.00 81 1001.6
20201201133144 45 57 6.0 9.0 0.00 0.77 0.00 82 1001.5
20201201132630 45 34 1.0 7.0 0.00 0.78 0.00 83 1001.3
20201201132128 45 39 1.0 8.0 0.00 0.80 0.00 84 1001.5
20201201131622 45 77 3.0 8.0 0.00 0.81 0.00 84 1001.4
20201201131103 44 69 5.0 8.0 0.00 0.83 0.00 85 1001.3
20201201130559 44 68 1.0 8.0 0.00 0.85 0.00 86 1001.2
20201201130058 44 55 1.0 7.0 0.00 0.88 0.00 86 1001.1
20201201125539 44 53 4.0 7.0 0.00 0.90 0.00 87 1001.3
20201201125034 43 55 2.0 4.0 0.00 0.91 0.00 88 1000.9
20201201124537 43 28 0.0 4.0 0.00 0.92 0.00 88 1001.1
20201201124019 43 29 2.0 4.0 0.00 0.93 0.00 88 1001.0
20201201123517 43 54 1.0 7.0 0.00 0.93 0.00 88 1001.1
20201201122955 43 24 2.0 7.0 0.00 0.94 0.00 89 1000.9
20201201122450 42 53 0.0 2.0 0.00 0.94 0.00 90 1000.9
20201201121944 42 75 0.0 2.0 0.00 0.94 0.00 91 1000.8
20201201121443 41 2 0.0 2.0 0.00 0.94 0.00 90 1000.9
20201201120925 42 37 0.0 1.0 0.00 0.94 0.00 89 1000.8
20201201120417 42 36 0.0 1.0 0.00 0.94 0.00 89 1000.4
20201201115924 42 35 0.0 1.0 0.00 0.94 0.00 89 1000.4
20201201115401 42 35 0.0 1.0 0.00 0.95 0.00 89 1000.3
20201201114854 42 47 0.0 3.0 0.00 0.95 0.00 88 1000.2
20201201114343 42 55 0.0 3.0 0.00 0.96 0.00 88 1000.1
20201201113845 43 70 0.0 2.0 0.00 0.96 0.00 88 1000.2
20201201113329 43 38 0.0 2.0 0.00 0.97 0.00 88 1000.3
20201201112821 43 38 0.0 4.0 0.00 0.97 0.00 89 1000.4
20201201112313 43 60 3.0 4.0 0.00 0.97 0.00 89 1000.1
20201201111805 42 50 1.0 3.0 0.00 0.98 0.00 90 1000.4
20201201111257 42 56 1.0 3.0 0.00 0.99 0.00 91 1000.3
20201201110747 42 44 1.0 2.0 0.00 1.00 0.00 91 1000.1
20201201110243 41 49 0.0 1.0 0.00 1.00 0.00 91 999.8
20201201105722 41 49 0.0 1.0 0.00 1.00 0.00 91 1000.2
20201201105212 41 49 0.0 1.0 0.00 1.01 0.00 90 999.9
20201201104707 41 49 0.0 1.0 0.00 1.01 0.00 90 999.8
20201201104158 41 50 0.0 1.0 0.00 1.01 0.00 89 999.8
20201201103706 42 49 0.0 1.0 0.00 1.01 0.00 89 999.6
20201201103155 42 49 0.0 1.0 0.00 1.01 0.00 88 999.6
20201201102634 42 64 0.0 1.0 0.00 1.01 0.00 87 999.3
20201201102123 42 57 0.0 1.0 0.00 1.01 0.00 86 999.5
20201201101630 43 75 0.0 0.0 0.00 1.01 0.00 85 999.3
20201201101109 43 75 0.0 0.0 0.00 1.01 0.00 85 999.5
20201201100602 44 75 0.0 0.0 0.00 1.01 0.00 83 999.3
20201201100119 44 75 0.0 0.0 0.00 1.01 0.00 83 999.5
20201201095554 45 75 0.0 1.0 0.00 1.01 0.00 82 999.4
20201201095031 45 75 0.0 2.0 0.00 1.01 0.00 81 999.3
20201201094525 46 80 0.0 3.0 0.00 1.01 0.00 80 999.4
20201201094021 46 72 1.0 3.0 0.00 1.01 0.00 80 999.3
20201201093508 46 74 0.0 3.0 0.00 1.01 0.00 80 999.4
20201201092955 46 82 0.0 4.0 0.00 1.01 0.00 80 999.5
20201201092446 46 57 1.0 4.0 0.00 1.01 0.00 80 999.5
20201201091938 46 55 1.0 4.0 0.00 1.01 0.00 80 999.4
20201201091431 46 72 2.0 6.0 0.00 1.01 0.00 81 999.2
20201201090922 46 57 2.0 6.0 0.00 1.01 0.00 81 999.2